When you browse on this site, cookies collect data to enhance your experience and personalize the content and advertising you see.
Visit our Privacy Policy to learn more. By continuing to use the site, you agree to this use of cookies and data.
  • In Spain
  • List of Countries
  • For 7 days
  • Water Temperature
  • Weather Map
  • Weather Widgets
  • user-avatar
    Login

    Hourly Weather Mansa

    Today, 20 October, Sunday

    Time Temperature Precipitation Wind Pressure Humidity
    00:00 +24°C° 0 mm 1 mps 659 mmHg 48%
    01:00 +24°C° 0 mm 1 mps 659 mmHg 51%
    02:00 +23°C° 0 mm 1 mps 659 mmHg 54%
    03:00 +23°C° 0 mm 1 mps 659 mmHg 57%
    04:00 +22°C° 0 mm 1 mps 659 mmHg 60%
    05:00 +22°C° 0 mm 1 mps 659 mmHg 63%
    06:00 +24°C° 0 mm 1 mps 660 mmHg 57%
    07:00 +26°C° 0 mm 1 mps 661 mmHg 51%
    08:00 +28°C° 0 mm 1 mps 662 mmHg 45%
    09:00 +30°C° 0 mm 2 mps 662 mmHg 38%
    10:00 +32°C° 0 mm 2 mps 662 mmHg 31%
    11:00 +36°C° 0 mm 2 mps 662 mmHg 24%
    12:00 +36°C° 0 mm 2 mps 661 mmHg 22%
    13:00 +36°C° 0 mm 2 mps 660 mmHg 20%
    14:00 +37°C° 0 mm 2 mps 659 mmHg 19%
    15:00 +36°C° 0 mm 2 mps 659 mmHg 20%
    16:00 +33°C° 0 mm 1 mps 658 mmHg 22%
    17:00 +32°C° 0 mm 1 mps 658 mmHg 23%
    18:00 +31°C° 0 mm 1 mps 658 mmHg 27%
    19:00 +29°C° 0 mm 1 mps 658 mmHg 30%
    20:00 +27°C° 0 mm 1 mps 658 mmHg 33%
    21:00 +27°C° 0 mm 1 mps 658 mmHg 36%
    22:00 +26°C° 0 mm 1 mps 658 mmHg 40%
    23:00 +25°C° 0 mm 1 mps 658 mmHg 43%

    Tomorrow, 21 October, Monday

    Time Temperature Precipitation Wind Pressure Humidity
    00:00 +24°C° 0 mm 1 mps 658 mmHg 46%
    01:00 +24°C° 0 mm 1 mps 658 mmHg 49%
    02:00 +23°C° 0 mm 1 mps 658 mmHg 52%
    03:00 +23°C° 0 mm 1 mps 658 mmHg 54%
    04:00 +22°C° 0 mm 1 mps 658 mmHg 57%
    05:00 +20°C° 0 mm 0 mps 658 mmHg 60%
    06:00 +24°C° 0 mm 1 mps 659 mmHg 53%
    07:00 +27°C° 0 mm 1 mps 660 mmHg 46%
    08:00 +29°C° 0 mm 2 mps 661 mmHg 39%
    09:00 +32°C° 0 mm 2 mps 661 mmHg 33%
    10:00 +35°C° 0 mm 2 mps 661 mmHg 27%
    11:00 +38°C° 0 mm 2 mps 661 mmHg 21%
    12:00 +38°C° 0 mm 2 mps 660 mmHg 20%
    13:00 +38°C° 0 mm 2 mps 659 mmHg 19%
    14:00 +37°C° 0 mm 2 mps 658 mmHg 17%
    15:00 +37°C° 0 mm 2 mps 657 mmHg 18%
    16:00 +36°C° 0 mm 2 mps 657 mmHg 18%
    17:00 +35°C° 0 mm 1 mps 656 mmHg 18%
    18:00 +33°C° 0 mm 1 mps 656 mmHg 21%
    19:00 +31°C° 0 mm 1 mps 657 mmHg 24%
    20:00 +26°C° 0 mm 0 mps 657 mmHg 27%
    21:00 +28°C° 0 mm 1 mps 657 mmHg 29%
    22:00 +28°C° 0 mm 1 mps 657 mmHg 31%
    23:00 +27°C° 0 mm 1 mps 657 mmHg 33%

    Day after tomorrow, 22 October, Tuesday

    Time Temperature Precipitation Wind Pressure Humidity
    00:00 +27°C° 0 mm 1 mps 657 mmHg 36%
    01:00 +26°C° 0 mm 1 mps 657 mmHg 38%
    02:00 +26°C° 0 mm 1 mps 657 mmHg 41%
    03:00 +25°C° 0 mm 1 mps 657 mmHg 45%
    04:00 +24°C° 0 mm 1 mps 657 mmHg 50%
    05:00 +23°C° 0 mm 1 mps 657 mmHg 54%
    06:00 +25°C° 0 mm 1 mps 658 mmHg 52%
    07:00 +27°C° 0 mm 1 mps 659 mmHg 50%
    08:00 +29°C° 0 mm 2 mps 660 mmHg 48%
    09:00 +33°C° 0 mm 1 mps 661 mmHg 40%
    10:00 +36°C° 0 mm 1 mps 661 mmHg 31%
    11:00 +38°C° 0 mm 0 mps 661 mmHg 22%
    12:00 +39°C° 0 mm 1 mps 660 mmHg 25%
    13:00 +35°C° 0 mm 1 mps 658 mmHg 28%
    14:00 +34°C° 0 mm 2 mps 657 mmHg 30%
    15:00 +33°C° 0 mm 1 mps 657 mmHg 31%
    16:00 +32°C° 0 mm 1 mps 656 mmHg 31%
    17:00 +32°C° 0 mm 1 mps 656 mmHg 32%
    18:00 +30°C° 0 mm 2 mps 656 mmHg 37%
    19:00 +28°C° 0 mm 3 mps 657 mmHg 42%
    20:00 +27°C° 0 mm 4 mps 657 mmHg 47%
    21:00 +26°C° 0 mm 3 mps 657 mmHg 55%
    22:00 +24°C° 0 mm 2 mps 656 mmHg 64%
    23:00 +23°C° 0 mm 1 mps 656 mmHg 72%

    23 October, Wednesday

    Time Temperature Precipitation Wind Pressure Humidity
    00:00 +23°C° 0 mm 1 mps 656 mmHg 73%
    01:00 +23°C° 0 mm 1 mps 656 mmHg 73%
    02:00 +22°C° 0 mm 1 mps 656 mmHg 73%
    03:00 +22°C° 0 mm 1 mps 656 mmHg 75%
    04:00 +22°C° 0 mm 1 mps 656 mmHg 77%
    05:00 +19°C° 0 mm 0 mps 657 mmHg 79%
    06:00 +22°C° 0 mm 0 mps 658 mmHg 68%
    07:00 +25°C° 0 mm 0 mps 659 mmHg 57%
    08:00 +28°C° 0 mm 0 mps 660 mmHg 47%
    09:00 +31°C° 0 mm 0 mps 660 mmHg 40%
    10:00 +35°C° 0 mm 1 mps 661 mmHg 32%
    11:00 +39°C° 0 mm 1 mps 661 mmHg 25%
    12:00 +37°C° 0 mm 1 mps 660 mmHg 25%
    13:00 +36°C° 0 mm 1 mps 658 mmHg 25%
    14:00 +35°C° 0 mm 1 mps 657 mmHg 25%
    15:00 +34°C° 0.2 mm 1 mps 657 mmHg 28%
    16:00 +33°C° 0.2 mm 1 mps 656 mmHg 32%
    17:00 +32°C° 0.2 mm 1 mps 656 mmHg 36%
    18:00 +30°C° 0 mm 1 mps 656 mmHg 40%
    19:00 +28°C° 0 mm 1 mps 656 mmHg 44%
    20:00 +27°C° 0 mm 1 mps 656 mmHg 48%
    21:00 +26°C° 0 mm 1 mps 656 mmHg 50%
    22:00 +26°C° 0 mm 1 mps 656 mmHg 52%
    23:00 +26°C° 0 mm 1 mps 656 mmHg 55%

    24 October, Thursday

    Time Temperature Precipitation Wind Pressure Humidity
    00:00 +25°C° 0.1 mm 1 mps 656 mmHg 58%
    01:00 +24°C° 0.1 mm 1 mps 656 mmHg 61%
    02:00 +24°C° 0.1 mm 1 mps 656 mmHg 64%
    03:00 +21°C° 0.1 mm 0 mps 657 mmHg 67%
    04:00 +21°C° 0.1 mm 0 mps 657 mmHg 70%
    05:00 +20°C° 0.1 mm 0 mps 657 mmHg 72%
    06:00 +23°C° 0 mm 0 mps 658 mmHg 65%
    07:00 +27°C° 0 mm 1 mps 659 mmHg 57%
    08:00 +30°C° 0 mm 1 mps 660 mmHg 49%
    09:00 +32°C° 0 mm 1 mps 660 mmHg 43%
    10:00 +35°C° 0 mm 2 mps 660 mmHg 37%
    11:00 +37°C° 0 mm 2 mps 661 mmHg 30%
    12:00 +36°C° 0 mm 2 mps 659 mmHg 31%
    13:00 +36°C° 0 mm 2 mps 658 mmHg 32%
    14:00 +34°C° 0 mm 1 mps 657 mmHg 33%
    15:00 +35°C° 0 mm 2 mps 657 mmHg 34%
    16:00 +34°C° 0 mm 2 mps 657 mmHg 35%
    17:00 +34°C° 0 mm 2 mps 657 mmHg 36%
    18:00 +31°C° 0 mm 2 mps 657 mmHg 43%
    19:00 +29°C° 0 mm 2 mps 657 mmHg 49%
    20:00 +27°C° 0 mm 2 mps 657 mmHg 56%
    21:00 +26°C° 0 mm 2 mps 657 mmHg 59%
    22:00 +25°C° 0 mm 2 mps 657 mmHg 62%
    23:00 +25°C° 0 mm 2 mps 657 mmHg 66%

    25 October, Friday

    Time Temperature Precipitation Wind Pressure Humidity
    00:00 +24°C° 0 mm 1 mps 657 mmHg 66%
    01:00 +24°C° 0 mm 1 mps 657 mmHg 67%
    02:00 +24°C° 0 mm 1 mps 657 mmHg 68%
    03:00 +23°C° 0.2 mm 1 mps 657 mmHg 72%
    04:00 +22°C° 0.2 mm 1 mps 658 mmHg 76%
    05:00 +22°C° 0.2 mm 1 mps 658 mmHg 80%
    06:00 +24°C° 0 mm 1 mps 659 mmHg 71%
    07:00 +27°C° 0 mm 1 mps 660 mmHg 62%
    08:00 +27°C° 0 mm 0 mps 661 mmHg 53%
    09:00 +32°C° 0 mm 1 mps 661 mmHg 44%
    10:00 +35°C° 0 mm 1 mps 661 mmHg 35%
    11:00 +37°C° 0 mm 1 mps 661 mmHg 26%
    12:00 +37°C° 0 mm 2 mps 660 mmHg 26%
    13:00 +36°C° 0 mm 2 mps 659 mmHg 26%
    14:00 +36°C° 0 mm 2 mps 658 mmHg 26%
    15:00 +35°C° 0 mm 2 mps 658 mmHg 28%
    16:00 +33°C° 0 mm 1 mps 657 mmHg 30%
    17:00 +32°C° 0 mm 1 mps 657 mmHg 31%
    18:00 +30°C° 0 mm 1 mps 657 mmHg 38%
    19:00 +28°C° 0 mm 1 mps 657 mmHg 44%
    20:00 +26°C° 0 mm 1 mps 657 mmHg 51%
    21:00 +25°C° 0 mm 1 mps 657 mmHg 53%
    22:00 +25°C° 0 mm 1 mps 657 mmHg 56%
    23:00 +25°C° 0 mm 1 mps 657 mmHg 58%
    Show more